Regional Weather Roundup
Issued by NWS Albany, NY

Home | Current Version | Previous Version | Text Only | Print | Product List | Glossary On
Versions: 1 2 3 4 5 6 7 8 9 10 11 12 13 14 15 16 17 18 19 20 21 22 23 24 25 26 27 28 29 30 31 32 33 34 35 36 37 38 39 40 41 42 43 44 45 46 47 48 49 50
000
ASUS41 KALY 240010
RWRALY

NEW YORK STATE HOURLY WEATHER ROUNDUP
NATIONAL WEATHER SERVICE ALBANY NY
800 PM EDT WED JUL 23 2014

NOTE: "FAIR" INDICATES FEW OR NO CLOUDS BELOW 12,000 FEET WITH NO
SIGNIFICANT WEATHER AND/OR NO OBSTRUCTIONS TO VISIBILITY.

NYZ032-033-038>043-046>054-057>066-NYZ062>081-240100-
EAST


CITY           SKY/WX    TMP DP  RH WIND       PRES   REMARKS
ALBANY         CLOUDY    74  70  87 CALM      29.80R
GLENS FALLS    LGT RAIN  71  68  90 CALM      29.79R
POUGHKEEPSIE   CLOUDY    86  72  62 SW5       29.75S HX  92
MONTGOMERY     HVY RAIN  75  69  81 N14G30    29.82R
WHITE PLAINS   PTCLDY    78  71  79 S6        29.80R
ISLIP          MOCLDY    78  65  63 SW12      29.80S
NEW YORK CITY  MOCLDY    84  71  65 S9G16     29.78R
CENTRAL PARK   MOCLDY    86  70  58 SW8       29.81R HX  90
$$

NYZ005>009-017-018-044>046-055-056-240100-
CENTRAL


CITY           SKY/WX    TMP DP  RH WIND       PRES   REMARKS
FULTON         CLOUDY    71  64  78 N10       29.87S
SYRACUSE       CLOUDY    72  63  73 W13       29.86S
ROME           CLOUDY    69  67  93 W7        29.86S
ELMIRA         CLOUDY    71  65  81 W3        29.91R
BINGHAMTON     CLOUDY    66  64  93 NW6       29.91R
MONTICELLO     CLOUDY    72  66  83 NW3       29.87R
$$

NYZ026>034-041>043-240100-
NORTH


CITY           SKY/WX    TMP DP  RH WIND       PRES   REMARKS
WATERTOWN      CLOUDY    70  56  61 N6        29.89R
FORT DRUM      NOT AVBL
MASSENA        PTCLDY    69  58  67 NW7       29.88R
SARANAC LAKE   CLOUDY    64  60  87 VRB5      29.88R
PLATTSBURGH    LGT RAIN  71  63  75 W6        29.81R
$$

NYZ001>004-010>016-019>021-240100-
WEST


CITY           SKY/WX    TMP DP  RH WIND       PRES   REMARKS
NIAGARA FALLS  MOCLDY    67  57  70 NW13      29.97R
BUFFALO        MOCLDY    66  56  70 N13       29.97R
DUNKIRK        CLOUDY    67  56  67 NW14      29.99R
JAMESTOWN      MOCLDY    64  57  77 N10       30.00R
WELLSVILLE     CLOUDY    67  59  75 N10       29.99R
ROCHESTER      CLOUDY    69  58  67 NW9       29.94R
PENN YAN       CLOUDY    69  61  75 NW10G17   29.93R
$$

             KEY
       WCI = WIND CHILL INDEX
       VSB = VISIBILITY
       HX  = HEAT INDEX
$$


USA.gov is the U.S. government's official web portal to all federal, state and local government web resources and services.